[[{"header":{"parameterUnit":"m.s-1","parameterCategory":1,"la1":30.2991,"la2":30.254,"lo1":-89.0895,"lo2":-89.0444,"dy":0.0017,"dx":0.0017,"nx":28,"ny":28,"refTime":"2024-02-05T09:00:00:Z","depth":0,"parameterNumber":2,"parameterNumberName":"U-component_of_WINDS"},"data":[0,0,0,0,0,0,0,0,0,0,0,0,0,0,0,0,0,0,0,0,0,0,0,0,0,0,0,0,0,0,0,0,0,0,0,0,0,0,0,0,0,0,0,0,0,0,0,0,0,0,0,0,0,0,0,0,0,0,1.065,1.0651,0,1.07,1.0701,1.0701,1.0674,1.0673,1.0671,1.067,1.0724,1.0727,1.0729,0,0,0,0,0,0,0,0,0,0,0,0,0,1.0535,1.0538,1.065,1.0651,1.0651,1.07,1.0701,1.0701,1.0674,1.0673,1.0671,1.0669,1.0723,1.0726,1.073,0,0,0,0,0,0,0,0,0,0,0,0,0,1.0585,1.0538,1.065,1.0644,1.0644,1.07,1.0701,1.0702,1.0675,1.0673,1.0671,1.0669,1.0722,1.0726,1.073,1.0796,0,0,1.0743,1.0744,0,0,0,0,0,0,0,0,1.0583,1.059,1.0644,1.0644,1.0644,1.0679,1.068,1.0733,1.0675,1.0663,1.067,1.0668,1.0711,1.0716,1.073,1.0799,1.0801,1.0743,1.0745,1.0747,1.0748,0,0,0,0,0,0,0,1.0579,1.0587,1.067,1.0645,1.0645,1.064,1.0644,1.069,1.0698,1.0664,1.0662,1.0668,1.0711,1.0726,1.0731,1.0802,1.0743,1.0746,1.0749,1.0751,1.0931,1.0933,0,0,0,0,0,0,1.0576,1.0585,1.0668,1.0671,1.0608,1.0643,1.0649,1.067,1.0697,1.0699,1.067,1.0667,1.072,1.0726,1.0733,1.0814,1.0747,1.0751,1.0753,1.0928,1.0931,1.0934,0,0,0,0,0,0,1.0573,1.0583,1.0666,1.0628,1.0638,1.0647,1.0671,1.0672,1.0687,1.0702,1.0703,1.0684,1.0718,1.0727,1.0781,1.0815,1.0753,1.0756,1.0926,1.0929,1.0933,1.0976,0,0,0,0,0,0,1.057,1.0583,1.0607,1.0628,1.064,1.0713,1.0673,1.0674,1.0694,1.069,1.0715,1.0718,1.0718,1.0775,1.0785,1.082,1.076,1.0923,1.0927,1.0931,1.0972,1.0981,1.0988,0,0,0,0,0,1.0566,1.0617,1.0608,1.0618,1.067,1.0715,1.0722,1.072,1.0697,1.0722,1.0732,1.0717,1.081,1.0781,1.0792,1.0828,1.0921,1.0926,1.0931,1.0968,1.0979,1.0988,0,0,0,0,0,0,1.06,1.062,1.061,1.0669,1.0691,1.071,1.0742,1.0731,1.076,1.0756,1.0753,1.0759,1.0816,1.0827,1.0795,1.0895,1.0862,1.0869,1.0886,1.0896,1.0905,1.0901,1.0763,0,0,0,0,0,1.0615,1.0648,1.0664,1.0715,1.0726,1.0732,1.0752,1.0748,1.0771,1.078,1.0793,1.0817,1.0851,1.0874,1.0907,1.0973,1.0979,1.1003,1.1012,1.1018,1.1026,1.1064,1.1076,1.0951,1.0951,1.0951,0,0,1.0645,1.066,1.0681,1.0722,1.0738,1.0775,1.074,1.0779,1.0807,1.0786,1.0839,1.0849,1.0875,1.0936,1.0964,1.0948,1.1061,1.1025,1.103,1.1034,1.1071,1.1082,1.1093,1.0955,1.0954,1.0954,0,0,1.0719,1.0733,1.0778,1.0795,1.0819,1.0823,1.0834,1.0856,1.0862,1.0914,1.09,1.0933,1.0992,1.1012,1.103,1.1113,1.1101,1.1123,1.1168,1.1205,1.1215,1.1224,1.1256,1.1267,1.113,1.113,1.113,0,1.0754,1.0807,1.0802,1.0844,1.0863,1.0845,1.0892,1.0909,1.0943,1.0958,1.0938,1.1014,1.1029,1.1096,1.1116,1.1131,1.1145,1.1121,1.1213,1.1222,1.123,1.1261,1.1273,1.1133,1.1133,1.1132,1.1132,0,1.085,1.0887,1.0921,1.0954,1.0977,1.1021,1.1025,1.1049,1.1044,1.105,1.1105,1.1124,1.1161,1.1176,1.1171,1.1243,1.1232,1.1213,1.118,1.1245,1.1274,1.1285,1.1137,1.1136,1.1135,1.1134,0,0,1.0948,1.0978,1.0991,1.1007,1.1033,1.1063,1.1106,1.1142,1.1164,1.1188,1.1226,1.1277,1.126,1.1281,1.1278,1.1311,1.1378,1.1288,1.1289,1.1306,1.1461,1.1477,1.149,1.137,1.1372,1.1374,1.146,0,1.1025,1.1101,1.1099,1.117,1.1206,1.1189,1.1228,1.1249,1.1257,1.1289,1.1298,1.1335,1.1308,1.1321,1.1352,1.1363,1.141,1.1357,1.1408,1.141,1.1404,1.1505,1.1521,1.1601,1.1471,1.1473,1.1474,0,1.1126,1.1154,1.1229,1.1251,1.1266,1.1301,1.1334,1.1364,1.1389,1.1392,1.1416,1.1408,1.1455,1.1419,1.1484,1.1448,1.1469,1.1478,1.1481,1.1487,1.1447,1.1516,1.1626,1.1639,1.1491,1.149,1.1488,0,1.1193,1.1249,1.1301,1.1315,1.1342,1.1367,1.138,1.1402,1.1424,1.1454,1.1468,1.1503,1.1523,1.155,1.1554,1.1527,1.162,1.1584,1.1626,1.1626,1.1648,1.1647,1.1766,1.1658,1.1658,1.1657,1.1657,0,1.1281,1.1328,1.1332,1.1364,1.1417,1.1414,1.1467,1.1478,1.1498,1.1534,1.1521,1.1555,1.1556,1.1592,1.1594,1.1649,1.1658,1.1663,1.1664,1.1666,1.1665,1.1681,1.1676,1.1661,1.166,1.1659,1.1659,0,1.1366,1.1369,1.1426,1.1447,1.1453,1.1492,1.1511,1.1543,1.1549,1.1594,1.1605,1.1615,1.1657,1.1662,1.171,1.1712,1.1779,1.1772,1.1771,1.177,1.1813,1.181,1.1948,1.1967,1.1844,1.1845,1.1846,0,1.1423,1.1458,1.1483,1.1506,1.152,1.1556,1.1579,1.1578,1.1602,1.1633,1.1662,1.1702,1.1734,1.18,1.1813,1.1851,1.1847,1.1892,1.1852,1.1854,1.185,1.1849,1.1854,1.1901,1.1902,1.1903,1.1904,0,1.1524,1.1525,1.1557,1.1591,1.1618,1.1645,1.167,1.1689,1.1692,1.172,1.1761,1.1786,1.1835,1.1876,1.1913,1.1927,1.1918,1.1916,1.1928,1.1932,1.193,1.1934,1.1794,1.1913,1.1912,1.1912,1.1911,1.1911,1.1598,1.163,1.1653,1.169,1.1709,1.1733,1.1765,1.1775,1.1809,1.1849,1.1846,1.1893,1.1918,1.1967,1.1984,1.2022,1.2007,1.2024,1.2029,1.2034,1.2039,1.1922,1.2028,1.2028,1.2027,1.2027,1.2027,0,1.1702,1.1716,1.175,1.1785,1.1815,1.1801,1.1828,1.1855,1.1895,1.1919,1.1951,1.2,1.2039,1.2055,1.2095,1.2122,1.2118,1.2132,1.2132,1.2136,1.2049,1.2035,1.2135,1.2135,1.2135,1.2135,1.2135,1.2135,1.1759,1.1813,1.1816,1.188,1.1894,1.1939,1.1956,1.1979,1.1998,1.2053,1.2086,1.2095,1.2117,1.2158,1.2194,1.2198,1.2214,1.2231,1.2233,1.2152,1.2141,1.2131,1.2119,1.2234,1.2234,1.2318,1.2318,1.2319]},{"header":{"parameterUnit":"m.s-1","parameterCategory":1,"la1":30.2991,"la2":30.254,"lo1":-89.0895,"lo2":-89.0444,"dy":0.0017,"dx":0.0017,"nx":28,"ny":28,"refTime":"2024-02-05T09:00:00:Z","depth":0,"parameterNumber":3,"parameterNumberName":"V-component_of_WINDS"},"data":[0,0,0,0,0,0,0,0,0,0,0,0,0,0,0,0,0,0,0,0,0,0,0,0,0,0,0,0,0,0,0,0,0,0,0,0,0,0,0,0,0,0,0,0,0,0,0,0,0,0,0,0,0,0,0,0,0,0,-1.8838,-1.8838,0,-1.8852,-1.8853,-1.8853,-1.8876,-1.8877,-1.8877,-1.8877,-1.8891,-1.8891,-1.8891,0,0,0,0,0,0,0,0,0,0,0,0,0,-1.8831,-1.8831,-1.8838,-1.8838,-1.8839,-1.8852,-1.8853,-1.8853,-1.8876,-1.8877,-1.8877,-1.8878,-1.8891,-1.8891,-1.8891,0,0,0,0,0,0,0,0,0,0,0,0,0,-1.8838,-1.8831,-1.8838,-1.8852,-1.8853,-1.8852,-1.8853,-1.8853,-1.8876,-1.8877,-1.8877,-1.8878,-1.8891,-1.8891,-1.8891,-1.8877,0,0,-1.889,-1.889,0,0,0,0,0,0,0,0,-1.8838,-1.8838,-1.885,-1.8851,-1.8853,-1.8863,-1.8855,-1.8861,-1.8876,-1.8867,-1.8877,-1.8878,-1.8881,-1.8882,-1.8883,-1.8878,-1.8878,-1.889,-1.889,-1.889,-1.889,0,0,0,0,0,0,0,-1.8837,-1.8838,-1.8844,-1.885,-1.8852,-1.8857,-1.8859,-1.8856,-1.887,-1.8868,-1.887,-1.8871,-1.8882,-1.8883,-1.8883,-1.8878,-1.889,-1.889,-1.889,-1.889,-1.8862,-1.8862,0,0,0,0,0,0,-1.8835,-1.8837,-1.8843,-1.8844,-1.8847,-1.8857,-1.8859,-1.8859,-1.887,-1.8873,-1.8871,-1.8872,-1.8883,-1.8883,-1.8884,-1.8868,-1.889,-1.889,-1.889,-1.8863,-1.8862,-1.8861,0,0,0,0,0,0,-1.8835,-1.8835,-1.8843,-1.8841,-1.8843,-1.8856,-1.8856,-1.8859,-1.886,-1.8872,-1.8875,-1.8869,-1.8883,-1.8884,-1.8879,-1.8869,-1.889,-1.889,-1.8864,-1.8863,-1.8862,-1.8837,0,0,0,0,0,0,-1.8834,-1.8835,-1.883,-1.8841,-1.8843,-1.8837,-1.8856,-1.8859,-1.886,-1.8862,-1.8872,-1.8874,-1.8884,-1.8879,-1.8878,-1.8869,-1.889,-1.8865,-1.8863,-1.8862,-1.8839,-1.8835,-1.8832,0,0,0,0,0,-1.8834,-1.8822,-1.883,-1.883,-1.8837,-1.8837,-1.8838,-1.885,-1.8859,-1.8854,-1.8862,-1.8873,-1.887,-1.8878,-1.8878,-1.8869,-1.8865,-1.8864,-1.8862,-1.884,-1.8836,-1.8832,0,0,0,0,0,0,-1.8809,-1.8824,-1.8832,-1.8824,-1.8829,-1.8841,-1.8835,-1.8845,-1.8847,-1.8849,-1.8864,-1.8866,-1.8858,-1.8863,-1.8871,-1.8856,-1.887,-1.8868,-1.8853,-1.8849,-1.8846,-1.8844,-1.889,0,0,0,0,0,-1.8803,-1.8802,-1.8815,-1.8806,-1.8808,-1.8821,-1.8821,-1.883,-1.8836,-1.8838,-1.8846,-1.885,-1.8851,-1.885,-1.8851,-1.884,-1.8842,-1.8834,-1.8831,-1.8828,-1.8826,-1.882,-1.8816,-1.8856,-1.8856,-1.8856,0,0,-1.8789,-1.8797,-1.8796,-1.8801,-1.8806,-1.8804,-1.8823,-1.882,-1.8819,-1.8838,-1.8833,-1.8839,-1.8845,-1.8836,-1.8833,-1.884,-1.8815,-1.8826,-1.8824,-1.8823,-1.8818,-1.8814,-1.8811,-1.8855,-1.8856,-1.8856,0,0,-1.8764,-1.877,-1.8763,-1.8768,-1.8776,-1.8784,-1.8783,-1.8793,-1.8798,-1.8794,-1.8808,-1.8807,-1.8807,-1.881,-1.8812,-1.8789,-1.8799,-1.8789,-1.8772,-1.8766,-1.8762,-1.876,-1.8751,-1.8747,-1.8787,-1.8787,-1.8787,0,-1.8746,-1.8744,-1.8758,-1.8755,-1.8757,-1.8775,-1.8768,-1.8772,-1.8779,-1.878,-1.8788,-1.8788,-1.8794,-1.8786,-1.8781,-1.8782,-1.878,-1.8787,-1.8762,-1.8759,-1.8757,-1.8748,-1.8745,-1.8786,-1.8786,-1.8786,-1.8786,0,-1.8721,-1.872,-1.8714,-1.872,-1.8722,-1.8717,-1.873,-1.873,-1.8739,-1.8747,-1.8742,-1.8749,-1.8752,-1.8751,-1.876,-1.8745,-1.8749,-1.8759,-1.8773,-1.8751,-1.8744,-1.874,-1.8784,-1.8784,-1.8785,-1.8785,0,0,-1.8679,-1.8695,-1.8692,-1.8695,-1.8706,-1.8704,-1.87,-1.8703,-1.8702,-1.8707,-1.8703,-1.8703,-1.8713,-1.8715,-1.8725,-1.872,-1.87,-1.8731,-1.8731,-1.8724,-1.8683,-1.8674,-1.867,-1.8707,-1.8707,-1.8707,-1.8682,0,-1.8655,-1.8648,-1.8661,-1.8652,-1.865,-1.8668,-1.8664,-1.867,-1.8677,-1.8677,-1.8685,-1.8684,-1.8698,-1.8699,-1.8695,-1.8703,-1.8692,-1.8705,-1.8703,-1.8703,-1.87,-1.8666,-1.8657,-1.8633,-1.8679,-1.8679,-1.8678,0,-1.8625,-1.8629,-1.8619,-1.863,-1.863,-1.8626,-1.863,-1.8629,-1.8636,-1.8642,-1.8645,-1.8656,-1.8652,-1.8667,-1.8661,-1.867,-1.8671,-1.8674,-1.8674,-1.8673,-1.8688,-1.8663,-1.8626,-1.8622,-1.8674,-1.8674,-1.8675,0,-1.8594,-1.8597,-1.8591,-1.8593,-1.8606,-1.8603,-1.8608,-1.8616,-1.8617,-1.862,-1.8621,-1.8624,-1.8625,-1.8627,-1.8638,-1.8648,-1.8631,-1.8647,-1.8635,-1.8635,-1.863,-1.863,-1.8591,-1.8632,-1.8632,-1.8632,-1.8632,0,-1.8565,-1.8557,-1.8577,-1.8573,-1.8566,-1.8582,-1.8574,-1.8581,-1.8587,-1.8585,-1.8601,-1.8598,-1.8615,-1.8614,-1.8623,-1.8617,-1.8618,-1.8622,-1.8624,-1.862,-1.8619,-1.8619,-1.862,-1.8631,-1.8631,-1.8631,-1.8632,0,-1.8528,-1.8541,-1.8536,-1.8549,-1.8552,-1.8546,-1.8557,-1.8554,-1.8563,-1.8559,-1.856,-1.8573,-1.8573,-1.8586,-1.8588,-1.8594,-1.8584,-1.859,-1.8581,-1.8583,-1.857,-1.857,-1.8529,-1.8524,-1.8569,-1.8568,-1.8568,0,-1.8508,-1.8503,-1.8515,-1.8515,-1.852,-1.8519,-1.8521,-1.8536,-1.8537,-1.8544,-1.854,-1.8542,-1.8543,-1.8542,-1.8552,-1.8554,-1.8559,-1.8545,-1.8559,-1.8555,-1.8558,-1.8557,-1.8556,-1.8541,-1.854,-1.854,-1.8539,0,-1.847,-1.8477,-1.8478,-1.8482,-1.8483,-1.8487,-1.8491,-1.849,-1.8507,-1.8507,-1.8507,-1.8509,-1.8511,-1.8512,-1.8516,-1.8521,-1.8532,-1.8535,-1.8532,-1.8527,-1.8522,-1.8523,-1.8571,-1.8535,-1.8536,-1.8536,-1.8536,-1.8537,-1.844,-1.8437,-1.8445,-1.8446,-1.8451,-1.8455,-1.8453,-1.8462,-1.8463,-1.8466,-1.8476,-1.8474,-1.8481,-1.8488,-1.8492,-1.8491,-1.8498,-1.8494,-1.8493,-1.8491,-1.8489,-1.8523,-1.8492,-1.8492,-1.8492,-1.8492,-1.8492,0,-1.8402,-1.8409,-1.841,-1.8416,-1.8417,-1.8429,-1.8435,-1.8434,-1.8433,-1.8439,-1.8441,-1.8441,-1.8442,-1.8453,-1.8455,-1.8452,-1.8457,-1.8452,-1.8451,-1.8452,-1.8482,-1.8484,-1.8447,-1.8447,-1.8447,-1.8447,-1.8447,-1.8447,-1.8383,-1.8377,-1.8385,-1.8382,-1.8389,-1.8388,-1.839,-1.8394,-1.8399,-1.8398,-1.8399,-1.8407,-1.8414,-1.8417,-1.8418,-1.8422,-1.8421,-1.8414,-1.8418,-1.8446,-1.845,-1.8454,-1.8456,-1.8414,-1.8414,-1.8388,-1.8388,-1.8387]}]]